Time,TemperatureF,DewpointF,PressureIn,WindDirection,WindDirectionDegrees,WindSpeedMPH,WindSpeedGustMPH,Humidity,HourlyPrecipIn,Conditions,Clouds,dailyrainin,SolarRadiationWatts/m^2,SoftwareType,DateUTC
2013-04-20 00:01:00,38.0,5.0,-100.00,NNW,327,5.0,5.0,25,0.00,,,0.00,1.000000,,2013-04-20 06:01:00,
2013-04-20 00:12:00,38.0,5.0,-100.00,NNW,327,5.0,5.0,25,0.00,,,0.00,1.000000,,2013-04-20 06:12:00,
2013-04-20 00:42:00,41.0,5.0,-100.00,NNW,329,2.0,5.0,22,0.00,,,0.00,1.000000,,2013-04-20 06:42:00,
2013-04-20 00:52:00,41.0,5.0,-100.00,NNW,329,2.0,5.0,22,0.00,,,0.00,1.000000,,2013-04-20 06:52:00,
2013-04-20 01:01:00,41.0,5.0,-100.00,NNW,329,2.0,5.0,22,0.00,,,0.00,1.000000,,2013-04-20 07:01:00,
2013-04-20 01:11:00,41.0,5.0,-100.00,NNW,329,2.0,5.0,22,0.00,,,0.00,1.000000,,2013-04-20 07:11:00,
2013-04-20 01:42:00,41.0,7.0,-100.00,SSW,209,3.0,5.0,24,0.00,,,0.00,1.000000,,2013-04-20 07:42:00,
2013-04-20 01:52:00,41.0,7.0,-100.00,SSW,209,3.0,5.0,24,0.00,,,0.00,1.000000,,2013-04-20 07:52:00,
2013-04-20 02:01:00,41.0,7.0,-100.00,SSW,209,3.0,5.0,24,0.00,,,0.00,1.000000,,2013-04-20 08:01:00,
2013-04-20 02:11:00,41.0,7.0,-100.00,SSW,209,3.0,5.0,24,0.00,,,0.00,1.000000,,2013-04-20 08:11:00,
2013-04-20 02:42:00,40.0,10.0,-100.00,NNW,332,5.0,7.0,28,0.00,,,-99.99,1.000000,,2013-04-20 08:42:00,
2013-04-20 02:52:00,40.0,10.0,-100.00,NNW,332,5.0,7.0,28,0.00,,,-99.99,1.000000,,2013-04-20 08:52:00,
2013-04-20 03:01:00,40.0,10.0,-100.00,NNW,332,5.0,7.0,28,0.00,,,-99.99,1.000000,,2013-04-20 09:01:00,
2013-04-20 03:11:00,40.0,10.0,-100.00,NNW,332,5.0,7.0,28,0.00,,,-99.99,1.000000,,2013-04-20 09:11:00,
2013-04-20 03:43:00,41.0,13.0,-100.00,West,273,3.0,5.0,31,0.00,,,0.00,1.000000,,2013-04-20 09:43:00,
2013-04-20 03:53:00,41.0,13.0,-100.00,West,273,3.0,5.0,31,0.00,,,0.00,1.000000,,2013-04-20 09:53:00,
2013-04-20 04:02:00,41.0,13.0,-100.00,West,273,3.0,5.0,31,0.00,,,0.00,1.000000,,2013-04-20 10:02:00,
2013-04-20 04:12:00,41.0,13.0,-100.00,West,273,3.0,5.0,31,0.00,,,0.00,1.000000,,2013-04-20 10:12:00,
2013-04-20 04:42:00,38.0,12.0,-100.00,WSW,247,2.0,5.0,34,0.00,,,0.00,1.000000,,2013-04-20 10:42:00,
2013-04-20 04:53:00,38.0,12.0,-100.00,WSW,247,2.0,5.0,34,0.00,,,0.00,1.000000,,2013-04-20 10:53:00,
2013-04-20 05:02:00,38.0,12.0,-100.00,WSW,247,2.0,5.0,34,0.00,,,0.00,1.000000,,2013-04-20 11:02:00,
2013-04-20 05:12:00,38.0,12.0,-100.00,WSW,247,2.0,5.0,34,0.00,,,0.00,1.000000,,2013-04-20 11:12:00,
2013-04-20 05:42:00,38.0,11.0,-100.00,SW,232,2.0,2.0,32,0.00,,,0.00,1.000000,,2013-04-20 11:42:00,
2013-04-20 05:52:00,38.0,11.0,-100.00,SW,232,2.0,2.0,32,0.00,,,0.00,1.000000,,2013-04-20 11:52:00,
2013-04-20 06:02:00,38.0,11.0,-100.00,SW,232,2.0,2.0,32,0.00,,,0.00,1.000000,,2013-04-20 12:02:00,
2013-04-20 06:11:00,38.0,11.0,-100.00,SW,232,2.0,2.0,32,0.00,,,0.00,1.000000,,2013-04-20 12:11:00,
2013-04-20 06:42:00,36.0,11.0,-100.00,SE,130,3.0,4.0,35,0.00,,,0.00,1.000000,,2013-04-20 12:42:00,
2013-04-20 06:52:00,36.0,11.0,-100.00,SE,130,3.0,4.0,35,0.00,,,0.00,1.000000,,2013-04-20 12:52:00,
2013-04-20 07:02:00,36.0,11.0,-100.00,SE,130,3.0,4.0,35,0.00,,,0.00,1.000000,,2013-04-20 13:02:00,
2013-04-20 07:11:00,36.0,11.0,-100.00,SE,130,3.0,4.0,35,0.00,,,0.00,1.000000,,2013-04-20 13:11:00,
2013-04-20 07:42:00,35.0,11.0,-100.00,ESE,103,5.0,5.0,36,0.00,,,0.00,17.000000,,2013-04-20 13:42:00,
2013-04-20 07:52:00,35.0,11.0,-100.00,ESE,103,5.0,5.0,36,0.00,,,0.00,17.000000,,2013-04-20 13:52:00,
2013-04-20 08:02:00,35.0,11.0,-100.00,ESE,103,5.0,5.0,36,0.00,,,0.00,17.000000,,2013-04-20 14:02:00,
2013-04-20 08:11:00,35.0,11.0,-100.00,ESE,103,5.0,5.0,36,0.00,,,0.00,17.000000,,2013-04-20 14:11:00,
2013-04-20 08:32:00,45.0,8.0,-100.00,SSE,157,5.0,6.0,22,0.00,,,0.00,159.000000,,2013-04-20 14:32:00,
2013-04-20 09:43:00,50.0,8.0,-100.00,SSW,208,5.0,8.0,18,0.00,,,0.00,434.000000,,2013-04-20 15:43:00,
2013-04-20 09:53:00,50.0,8.0,-100.00,SSW,208,5.0,8.0,18,0.00,,,0.00,434.000000,,2013-04-20 15:53:00,
2013-04-20 10:03:00,50.0,8.0,-100.00,SSW,208,5.0,8.0,18,0.00,,,0.00,434.000000,,2013-04-20 16:03:00,
2013-04-20 10:12:00,50.0,8.0,-100.00,SSW,208,5.0,8.0,18,0.00,,,0.00,434.000000,,2013-04-20 16:12:00,
2013-04-20 10:42:00,53.0,8.0,-100.00,WSW,245,9.0,15.0,16,0.00,,,0.00,684.000000,,2013-04-20 16:42:00,
2013-04-20 11:33:00,54.0,11.0,-100.00,West,280,13.0,26.0,18,0.00,,,-99.99,521.000000,,2013-04-20 17:33:00,
2013-04-20 11:42:00,54.0,11.0,-100.00,West,280,13.0,26.0,18,0.00,,,-99.99,521.000000,,2013-04-20 17:42:00,
2013-04-20 11:52:00,54.0,11.0,-100.00,West,280,13.0,26.0,18,0.00,,,-99.99,521.000000,,2013-04-20 17:52:00,
2013-04-20 12:02:00,54.0,11.0,-100.00,West,280,13.0,26.0,18,0.00,,,-99.99,521.000000,,2013-04-20 18:02:00,
2013-04-20 12:12:00,54.0,11.0,-100.00,West,280,13.0,26.0,18,0.00,,,-99.99,521.000000,,2013-04-20 18:12:00,
2013-04-20 12:42:00,55.0,14.0,-100.00,West,271,18.0,29.0,19,0.00,,,0.00,1039.000000,,2013-04-20 18:42:00,
2013-04-20 12:52:00,55.0,14.0,-100.00,West,271,18.0,29.0,19,0.00,,,0.00,1039.000000,,2013-04-20 18:52:00,
2013-04-20 13:01:00,55.0,14.0,-100.00,West,271,18.0,29.0,19,0.00,,,0.00,1039.000000,,2013-04-20 19:01:00,
2013-04-20 13:11:00,55.0,14.0,-100.00,West,271,18.0,29.0,19,0.00,,,0.00,1039.000000,,2013-04-20 19:11:00,
2013-04-20 13:42:00,56.0,10.0,-100.00,West,279,16.0,37.0,16,0.00,,,0.00,1144.000000,,2013-04-20 19:42:00,
2013-04-20 13:52:00,56.0,10.0,-100.00,West,279,16.0,37.0,16,0.00,,,0.00,1144.000000,,2013-04-20 19:52:00,
2013-04-20 14:02:00,56.0,10.0,-100.00,West,279,16.0,37.0,16,0.00,,,0.00,1144.000000,,2013-04-20 20:02:00,
2013-04-20 14:42:00,57.0,10.0,-100.00,West,277,21.0,35.0,15,0.00,,,0.00,1092.000000,,2013-04-20 20:42:00,
2013-04-20 14:52:00,57.0,10.0,-100.00,West,277,21.0,35.0,15,0.00,,,0.00,1092.000000,,2013-04-20 20:52:00,
2013-04-20 15:12:00,57.0,10.0,-100.00,West,277,21.0,35.0,15,0.00,,,0.00,1092.000000,,2013-04-20 21:12:00,
2013-04-20 15:43:00,57.0,11.0,-100.00,West,277,22.0,36.0,16,0.00,,,0.00,1101.000000,,2013-04-20 21:43:00,
2013-04-20 15:53:00,57.0,11.0,-100.00,West,277,22.0,36.0,16,0.00,,,0.00,1101.000000,,2013-04-20 21:53:00,
2013-04-20 16:42:00,57.0,15.0,-100.00,WNW,291,22.0,35.0,19,0.00,,,0.00,1000.000000,,2013-04-20 22:42:00,
2013-04-20 16:52:00,57.0,15.0,-100.00,WNW,291,22.0,35.0,19,0.00,,,0.00,1000.000000,,2013-04-20 22:52:00,
2013-04-20 17:02:00,57.0,15.0,-100.00,WNW,291,22.0,35.0,19,0.00,,,0.00,1000.000000,,2013-04-20 23:02:00,
2013-04-20 17:11:00,57.0,15.0,-100.00,WNW,291,22.0,35.0,19,0.00,,,0.00,1000.000000,,2013-04-20 23:11:00,
2013-04-20 17:42:00,56.0,17.0,-100.00,West,277,23.0,34.0,21,0.00,,,0.00,716.000000,,2013-04-20 23:42:00,
2013-04-20 17:52:00,56.0,17.0,-100.00,West,277,23.0,34.0,21,0.00,,,0.00,716.000000,,2013-04-20 23:52:00,
2013-04-20 18:01:00,56.0,17.0,-100.00,West,277,23.0,34.0,21,0.00,,,0.00,716.000000,,2013-04-21 00:01:00,
2013-04-20 18:11:00,56.0,17.0,-100.00,West,277,23.0,34.0,21,0.00,,,0.00,716.000000,,2013-04-21 00:11:00,
2013-04-20 18:42:00,55.0,18.0,-100.00,West,280,17.0,33.0,23,0.00,,,0.00,467.000000,,2013-04-21 00:42:00,
2013-04-20 18:52:00,55.0,18.0,-100.00,West,280,17.0,33.0,23,0.00,,,0.00,467.000000,,2013-04-21 00:52:00,
2013-04-20 19:01:00,55.0,18.0,-100.00,West,280,17.0,33.0,23,0.00,,,0.00,467.000000,,2013-04-21 01:01:00,
2013-04-20 19:11:00,55.0,18.0,-100.00,West,280,17.0,33.0,23,0.00,,,0.00,467.000000,,2013-04-21 01:11:00,
2013-04-20 19:42:00,53.0,16.0,-100.00,West,278,18.0,30.0,23,0.00,,,0.00,267.000000,,2013-04-21 01:42:00,
2013-04-20 19:52:00,53.0,16.0,-100.00,West,278,18.0,30.0,23,0.00,,,0.00,267.000000,,2013-04-21 01:52:00,
2013-04-20 20:01:00,53.0,16.0,-100.00,West,278,18.0,30.0,23,0.00,,,0.00,267.000000,,2013-04-21 02:01:00,
2013-04-20 20:11:00,53.0,16.0,-100.00,West,278,18.0,30.0,23,0.00,,,0.00,267.000000,,2013-04-21 02:11:00,
2013-04-20 20:42:00,48.0,20.0,-100.00,NW,305,9.0,22.0,32,0.00,,,0.00,37.000000,,2013-04-21 02:42:00,
2013-04-20 20:52:00,48.0,20.0,-100.00,NW,305,9.0,22.0,32,0.00,,,0.00,37.000000,,2013-04-21 02:52:00,
2013-04-20 21:01:00,48.0,20.0,-100.00,NW,305,9.0,22.0,32,0.00,,,0.00,37.000000,,2013-04-21 03:01:00,
2013-04-20 21:11:00,48.0,20.0,-100.00,NW,305,9.0,22.0,32,0.00,,,0.00,37.000000,,2013-04-21 03:11:00,
2013-04-20 21:42:00,46.0,20.0,-100.00,NW,307,9.0,13.0,35,0.00,,,0.00,1.000000,,2013-04-21 03:42:00,
2013-04-20 21:52:00,46.0,20.0,-100.00,NW,307,9.0,13.0,35,0.00,,,0.00,1.000000,,2013-04-21 03:52:00,
2013-04-20 22:02:00,46.0,20.0,-100.00,NW,307,9.0,13.0,35,0.00,,,0.00,1.000000,,2013-04-21 04:02:00,
2013-04-20 22:12:00,46.0,20.0,-100.00,NW,307,9.0,13.0,35,0.00,,,0.00,1.000000,,2013-04-21 04:12:00,
2013-04-20 22:42:00,44.0,17.0,-100.00,NW,319,8.0,13.0,34,0.00,,,0.00,1.000000,,2013-04-21 04:42:00,
2013-04-20 22:53:00,44.0,17.0,-100.00,NW,319,8.0,13.0,34,0.00,,,0.00,1.000000,,2013-04-21 04:53:00,
2013-04-20 23:02:00,44.0,17.0,-100.00,NW,319,8.0,13.0,34,0.00,,,0.00,1.000000,,2013-04-21 05:02:00,
2013-04-20 23:12:00,44.0,17.0,-100.00,NW,319,8.0,13.0,34,0.00,,,0.00,1.000000,,2013-04-21 05:12:00,
2013-04-20 23:43:00,41.0,17.0,-100.00,West,278,3.0,12.0,37,0.00,,,0.00,1.000000,,2013-04-21 05:43:00,
2013-04-20 23:52:00,41.0,17.0,-100.00,West,278,3.0,12.0,37,0.00,,,0.00,1.000000,,2013-04-21 05:52:00,